Springfield, MO

8:17 AM CDT on April 27, 2017 (GMT -0500)
Springfield-Branson Regional

Weather History for KSGF - May, 2012

Change the Weather History Date:

Thursday, May 24, 2012

  Actual Average Record
Temperature  
Mean Temperature 76 °F 67 °F  
Max Temperature 86 °F 77 °F 90 °F (1939)
Min Temperature 66 °F 57 °F 40 °F (1925)
Degree Days  
Heating Degree Days 0 2  
Month to date heating degree days 29 85  
Since 1 July heating degree days 3670 4559  
Cooling Degree Days 11 4  
Month to date cooling degree days 102 57  
Year to date cooling degree days 180 82  
Growing Degree Days 26 (Base 50)    
Moisture  
Dew Point 60 °F    
Average Humidity 60    
Maximum Humidity 73    
Minimum Humidity 47    
Precipitation  
Precipitation 0.00 in 0.15 in 2.52 in (1888)
Month to date precipitation 1.26 4.06  
Year to date precipitation 11.73 16.99  
Snow  
Snow 0.00 in - - ()
Month to date snowfall 0.0  
Since 1 July snowfall 2.8  
Snow Depth 0.00 in    
Sea Level Pressure  
Sea Level Pressure 29.60 in    
Wind  
Wind Speed 15 mph (South)    
Max Wind Speed 28 mph    
Max Gust Speed 36 mph    
Visibility 10 miles    
Events      
T = Trace of Precipitation, MM = Missing Value Source: NWS Daily Summary

Daily Weather History Graph

Daily Weather History Graph

Search for Another Location

Airport or City:

Trip Planner

Search our weather history database for the weather conditions in past years. The results will help you decide how hot, cold, wet, or windy it might be!

Date:

Astronomy

May. 24, 2012 Rise Set
Actual Time 5:58 AM CDT 8:23 PM CDT
Civil Twilight 5:28 AM CDT 8:52 PM CDT
Nautical Twilight 4:51 AM CDT 9:29 PM CDT
Astronomical Twilight 4:11 AM CDT 10:10 PM CDT
Moon 8:58 AM CDT (5/24) 11:25 PM CDT (5/24)
Length of Visible Light 15h 24m
Length of Day
14h 24m
Waxing Crescent, 12% of the Moon is Illuminated
May 24
Waxing Crescent
May 28
First Quarter
Jun 4
Full
Jun 11
Last Quarter
Jun 19
New

Hourly Weather History & Observations

Time (CDT) Temp. Heat Index Dew Point Humidity Pressure Visibility Wind Dir Wind Speed Gust Speed Precip Events Conditions
12:52 AM 72.0 °F - 55.0 °F 55% 29.60 in 10.0 mi SSE 20.7 mph 29.9 mph N/A   Clear
1:52 AM 71.1 °F - 55.9 °F 59% 29.58 in 10.0 mi SSE 16.1 mph - N/A   Clear
2:52 AM 69.1 °F - 55.9 °F 63% 29.57 in 10.0 mi SSE 18.4 mph - N/A   Clear
3:52 AM 68.0 °F - 55.9 °F 65% 29.55 in 10.0 mi SSE 16.1 mph 25.3 mph N/A   Clear
4:52 AM 66.9 °F - 55.9 °F 68% 29.55 in 10.0 mi SSE 18.4 mph 24.2 mph N/A   Clear
5:52 AM 66.0 °F - 55.9 °F 70% 29.54 in 10.0 mi SSE 18.4 mph - N/A   Clear
6:52 AM 66.9 °F - 57.9 °F 73% 29.55 in 10.0 mi SSE 18.4 mph 25.3 mph N/A   Clear
7:52 AM 70.0 °F - 59.0 °F 68% 29.54 in 10.0 mi SSE 17.3 mph 27.6 mph N/A   Clear
8:52 AM 73.9 °F - 57.9 °F 57% 29.55 in 10.0 mi South 24.2 mph 29.9 mph N/A   Clear
9:52 AM 75.9 °F - 59.0 °F 56% 29.55 in 10.0 mi South 20.7 mph - N/A   Clear
10:52 AM 80.6 °F 81.5 °F 60.8 °F 51% 29.59 in 10.0 mi SSE 24.2 mph 34.5 mph N/A   Clear
11:52 AM 82.9 °F 83.2 °F 60.1 °F 46% 29.56 in 10.0 mi South 18.4 mph 31.1 mph N/A   Clear
12:52 PM 84.0 °F 84.5 °F 62.1 °F 47% 29.57 in 10.0 mi South 23.0 mph 29.9 mph N/A   Clear
1:52 PM 84.9 °F 85.9 °F 63.0 °F 48% 29.57 in 10.0 mi South 17.3 mph 23.0 mph N/A   Scattered Clouds
2:52 PM 82.9 °F 84.0 °F 63.0 °F 51% 29.58 in 10.0 mi SSW 16.1 mph - N/A   Mostly Cloudy
3:52 PM 82.9 °F 84.6 °F 64.9 °F 54% 29.59 in 10.0 mi SSW 11.5 mph - N/A   Mostly Cloudy
4:52 PM 82.0 °F 83.4 °F 64.0 °F 54% 29.60 in 10.0 mi SSW 12.7 mph - N/A   Overcast
5:52 PM 81.0 °F 82.5 °F 64.0 °F 56% 29.61 in 10.0 mi South 12.7 mph - N/A   Overcast
6:52 PM 80.1 °F 81.7 °F 64.0 °F 58% 29.62 in 10.0 mi South 15.0 mph - N/A   Mostly Cloudy
7:52 PM 78.1 °F - 63.0 °F 60% 29.64 in 10.0 mi SSW 9.2 mph - N/A   Mostly Cloudy
8:52 PM 75.9 °F - 63.0 °F 64% 29.65 in 10.0 mi SSW 8.1 mph - N/A   Overcast
9:52 PM 75.0 °F - 63.0 °F 66% 29.70 in 10.0 mi SSW 5.8 mph - N/A   Overcast
10:52 PM 73.9 °F - 64.0 °F 71% 29.72 in 10.0 mi SSE 10.4 mph - N/A   Overcast
11:52 PM 73.9 °F - 64.0 °F 71% 29.75 in 10.0 mi SSE 6.9 mph - N/A   Mostly Cloudy